Temp
10 9 10 9 10 11 11 12 13 14 14 14 14 14 14 14 14 13 14 13 13 13
8 8 8 9 9 8 8 7 8 9 11 10 12 12 13 14 13 13 13 13 13 13
7 6 7 8 9 8 10 8 6 6 7 10 8 9 10 8 8 10 10 11 12 12
5 6 5 6 7 6 7 9 6 5 5 5 5 8 7 7 8 6 5 7 8 9
5 5 3 4 5 5 5 5 4 2 3 2 3 2 2 5 4 2 4 4 6 6
3 3 2 2 3 3 3 2 2 1 1 0 0 0 1 1 1 2 2 3 3 3
1 0 1 0 1 1 1 2 1 1 2 1 1 0 -1 -1 -0 1 0 1 2 1
-0 -0 -0 -0 -1 -0 0 -0 -1 -0 -0 -0 -0 -2 -2 -1 -1 -1 -1 -2 -3 -2
-1 -1 -1 -1 -2 -1 -1 -1 -1 -2 -1 -1 -2 -2 -1 -1 -2 -3 -3 -3 -4 -4
-2 -2 -3 -2 -3 -3 -3 -3 -4 -4 -3 -3 -3 -2 -2 -4 -4 -4 -5 -5 -4 -6
-4 -4 -4 -4 -4 -4 -4 -4 -5 -5 -4 -4 -4 -5 -6 -7 -6 -6 -6 -6 -7 -7
-5 -5 -5 -5 -6 -7 -6 -6 -6 -6 -5 -5 -5 -6 -5 -5 -6 -6 -6 -7 -7 -7
-6 -6 -6 -7 -7 -8 -8 -8 -8 -8 -7 -6 -6 -5 -6 -5 -6 -7 -8 -7 -7 -6
-6 -7 -8 -8 -8 -8 -8 -8 -8 -8 -8 -7 -7 -6 -6 -6 -6 -6 -8 -7 -6 -7
Height
1430 1422 1416 1410 1401 1394 1394 1390 1387 1386 1385 1384 1384 1388 1389 1390 1393 1396 1399 1401 1405 1411
1430 1423 1417 1410 1402 1397 1391 1390 1382 1384 1381 1377 1374 1377 1380 1380 1383 1384 1385 1390 1396 1402
1431 1424 1418 1412 1406 1395 1390 1391 1391 1387 1380 1377 1363 1365 1375 1369 1379 1378 1379 1382 1388 1391
1430 1423 1419 1413 1408 1400 1395 1393 1391 1387 1387 1378 1383 1373 1376 1374 1375 1379 1374 1376 1386 1390
1429 1424 1419 1414 1411 1406 1402 1398 1393 1393 1394 1391 1387 1391 1385 1373 1380 1382 1381 1385 1388 1393
1429 1425 1420 1417 1413 1411 1407 1404 1401 1405 1395 1401 1400 1390 1390 1391 1391 1397 1396 1389 1394 1400
1431 1427 1423 1421 1417 1415 1412 1410 1409 1406 1405 1408 1400 1396 1399 1401 1398 1397 1398 1400 1405 1408
1435 1431 1428 1423 1422 1417 1415 1415 1414 1410 1406 1405 1404 1409 1410 1407 1405 1401 1405 1408 1411 1409
1439 1435 1432 1429 1427 1423 1421 1420 1418 1416 1409 1412 1414 1414 1411 1410 1410 1410 1414 1415 1418 1416
1443 1439 1436 1433 1434 1427 1425 1424 1422 1422 1416 1415 1417 1416 1416 1416 1415 1416 1417 1418 1422 1421
1448 1445 1442 1440 1438 1435 1432 1429 1427 1428 1423 1421 1423 1424 1421 1422 1424 1423 1422 1421 1424 1425
1452 1450 1449 1446 1444 1440 1441 1438 1435 1434 1430 1429 1430 1430 1428 1426 1425 1426 1424 1424 1426 1422
1457 1455 1454 1453 1450 1449 1448 1444 1444 1442 1438 1437 1436 1434 1432 1429 1428 1425 1426 1428 1426 1422
1462 1461 1461 1460 1458 1456 1454 1453 1451 1448 1446 1442 1441 1438 1435 1432 1431 1430 1428 1426 1425 1423
Wind_Speed
29 31 28 23 20 18 18 18 24 31 33 42 46 45 45 47 47 44 38 32 21 19
23 23 25 24 18 15 11 13 11 14 20 12 27 28 35 38 41 42 38 33 20 14
21 17 16 18 19 12 18 12 13 7 2 10 3 18 23 18 15 25 24 19 14 11
22 17 16 15 13 15 12 14 13 12 14 16 13 8 10 18 13 16 17 20 15 14
20 17 13 13 13 14 11 7 8 14 13 23 20 19 21 22 20 18 20 19 17 17
17 14 11 10 10 10 10 13 14 16 24 21 22 28 22 22 22 16 18 18 15 13
12 10 11 12 13 14 14 14 14 15 17 18 23 25 25 24 23 22 23 21 17 14
10 9 9 12 14 15 15 17 17 16 18 19 19 21 18 18 20 23 21 20 18 15
8 7 10 13 15 17 18 17 17 19 20 19 20 18 18 17 15 14 13 13 15 14
10 13 15 15 14 17 19 18 21 24 24 23 21 20 17 19 20 19 17 14 7 10
13 14 14 16 18 19 19 22 25 26 27 23 21 16 16 20 20 18 17 17 18 17
13 15 17 19 21 24 24 26 28 27 26 27 25 21 18 15 16 19 17 18 19 20
14 15 18 19 22 21 21 23 26 26 27 24 24 23 24 23 19 17 15 12 14 20
17 20 22 22 22 19 20 21 19 18 20 22 23 23 23 24 24 21 18 18 19 22
Wind_Direction
354 351 334 327 327 314 302 289 259 232 223 228 234 240 241 235 230 225 215 208 211 214
351 358 355 342 333 329 321 342 315 272 243 217 211 209 217 223 214 209 200 208 203 241
333 348 354 352 349 345 356 335 10 16 125 171 104 154 166 148 152 173 172 175 189 191
323 327 347 348 347 360 8 350 31 53 50 63 84 122 122 135 94 106 105 122 128 124
324 328 350 6 4 359 2 23 61 65 75 76 76 82 82 102 115 89 112 109 124 128
333 345 4 24 32 34 34 42 44 55 76 75 78 72 71 83 87 85 73 85 92 103
357 2 17 33 43 47 51 57 64 68 61 50 50 54 58 64 72 64 59 54 52 47
355 14 37 52 56 62 63 64 65 67 68 67 61 51 51 54 58 58 53 45 24 21
9 46 57 59 52 57 58 59 60 60 64 62 56 42 37 38 43 52 55 67 47 9
60 64 63 63 61 57 55 56 58 58 58 55 48 39 39 50 43 47 42 31 35 15
68 67 64 59 56 55 54 56 58 59 57 55 56 51 51 56 57 47 44 22 13 3
62 61 58 59 59 60 59 58 57 52 57 57 56 48 46 61 76 56 40 19 7 355
67 64 62 60 55 54 58 60 52 43 49 52 50 48 47 48 48 59 32 21 6 3
63 60 58 60 57 51 55 56 48 47 46 45 44 43 42 41 38 35 24 18 14 10